Tracking 17925 objects as of 20-January-2017
HD Live streaming from Space Station
objects crossing your sky now

INTELSAT 901

Track INTELSAT 901 now!
INTELSAT 901 is classified as:


NORAD ID: 26824
Int'l Code: 2001-024A
Perigee: 35,782.3 km
Apogee: 35,804.5 km
Inclination: 0.0 °
Period: 1,436.1 minutes
Semi major axis: 42164 km
RCS: 15.9919 m2 (large)
Launch date: June 9, 2001
Source: International Telecommunications Satellite Organization (ITSO)
Launch site: FRENCH GUIANA (FRGUI)

72 C-band, 22 Ku-band, broadcasting, business services, direct-to-home TV broadcasting, telecommunications, VSAT networks; Atlantic Ocean region.
Your satellite tracking list
Your tracking list is empty





NASA's NSSDC Master Catalog

Two Line Element Set (TLE):
1 26824U 01024A   17020.12427222 -.00000145  00000-0  00000+0 0  9991
2 26824   0.0231 315.6968 0002633 344.7384 205.9690  1.00272970 57152
Source of the keplerian elements: AFSPC